CW5557 Weather Reports


Display with metric or nautical units.
time (UTC)temp
F
wind
direction
speed
MPH
gust
MPH
rain 1hr
in
rain 24hr
in
rain mn
in
humidity
%
barometer
mb
20180426224708 71 130 1.0 5.0 0.00 0.00 0.00 74 1017.9
20180426223708 72 92 2.0 6.0 0.00 0.00 0.00 72 1017.9
20180426221710 73 113 2.0 3.0 0.00 0.00 0.00 68 1017.9
20180426220708 73 96 0.0 5.0 0.00 0.00 0.00 68 1017.9
20180426214708 73 88 1.0 3.0 0.00 0.00 0.00 66 1017.9
20180426213709 73 56 1.0 6.0 0.00 0.00 0.00 66 1017.9
20180426211708 74 97 2.0 5.0 0.00 0.00 0.00 65 1017.9
20180426210708 74 96 1.0 3.0 0.00 0.00 0.00 65 1017.9
20180426204709 74 122 1.0 6.0 0.00 0.00 0.00 64 1017.9
20180426203708 74 136 2.0 9.0 0.00 0.00 0.00 65 1017.9
20180426201708 75 92 3.0 6.0 0.00 0.00 0.00 66 1017.9
20180426200710 75 163 3.0 6.0 0.00 0.00 0.00 65 1017.9
20180426194709 76 104 3.0 7.0 0.00 0.00 0.00 62 1017.9
20180426193711 75 169 1.0 10.0 0.00 0.00 0.00 63 1017.9
20180426191709 76 180 3.0 6.0 0.00 0.00 0.00 61 1017.9
20180426190709 78 198 2.0 9.0 0.00 0.00 0.00 58 1017.9
20180426184708 78 207 2.0 6.0 0.00 0.00 0.00 56 1017.9
20180426183708 78 168 1.0 9.0 0.00 0.00 0.00 59 1017.9
20180426181709 76 167 5.0 12.0 0.00 0.00 0.00 63 1017.9
20180426180709 76 204 2.0 10.0 0.00 0.00 0.00 61 1017.9
20180426174708 77 136 2.0 12.0 0.00 0.00 0.00 63 1018.5
20180426173708 76 176 1.0 9.0 0.00 0.00 0.00 64 1018.5
20180426171710 75 159 4.0 10.0 0.00 0.00 0.00 67 1018.5
20180426170709 74 152 1.0 10.0 0.00 0.00 0.00 73 1019.1
20180426164709 73 171 3.0 9.0 0.00 0.00 0.00 75 1019.0
20180426163709 73 211 3.0 7.0 0.00 0.00 0.00 75 1019.3
20180426154708 72 199 1.0 7.0 0.00 0.00 0.00 76 1019.4
20180426153708 74 216 3.0 9.0 0.00 0.00 0.00 75 1019.4
20180426151708 73 161 2.0 7.0 0.00 0.00 0.00 77 1019.6
20180426150708 72 218 2.0 7.0 0.00 0.00 0.00 79 1019.5
20180426144708 70 192 1.0 7.0 0.00 0.00 0.00 83 1019.5
20180426143708 69 190 2.0 6.0 0.00 0.00 0.00 85 1019.5
20180426133708 67 229 2.0 3.0 0.00 0.00 0.00 87 1019.3
20180426131708 67 183 1.0 3.0 0.00 0.00 0.00 87 1019.3
20180426130709 68 180 0.0 3.0 0.00 0.00 0.00 86 1019.3
20180426124708 69 178 1.0 3.0 0.00 0.00 0.00 85 1018.8
20180426123708 68 147 1.0 3.0 0.00 0.00 0.00 83 1018.8
20180426121708 68 147 1.0 2.0 0.00 0.00 0.00 84 1018.6
20180426120710 68 148 0.0 2.0 0.00 0.00 0.00 83 1018.6
20180426114710 68 147 1.0 3.0 0.00 0.00 0.00 82 1017.9
20180426113708 67 147 0.0 2.0 0.00 0.00 0.00 79 1017.9
20180426111710 65 147 0.0 0.0 0.00 0.00 0.00 85 1017.6
20180426110709 64 147 0.0 1.0 0.00 0.00 0.00 85 1017.6
20180426101708 63 147 0.0 1.0 0.00 0.00 0.00 85 1017.1
20180426100709 63 147 0.0 2.0 0.00 0.00 0.00 86 1017.1
20180426094708 64 148 0.0 3.0 0.00 0.00 0.00 85 1017.1
20180426093708 63 147 0.0 3.0 0.00 0.00 0.00 83 1017.1
20180426081709 62 63 0.0 3.0 0.00 0.00 0.00 92 1016.8
20180426080710 62 60 2.0 3.0 0.00 0.00 0.00 92 1016.8
20180426074709 62 19 0.0 1.0 0.00 0.00 0.00 92 1016.8
20180426073708 62 19 3.0 5.0 0.00 0.00 0.00 92 1016.5
20180426071709 62 37 2.0 5.0 0.00 0.00 0.00 90 1016.4
20180426070708 63 57 3.0 5.0 0.00 0.00 0.00 89 1016.6
20180426064709 64 211 1.0 3.0 0.00 0.00 0.00 85 1016.6
20180426063709 64 67 0.0 2.0 0.00 0.00 0.00 82 1016.6
20180426061708 64 67 0.0 0.0 0.00 0.00 0.00 82 1016.6
20180426060708 64 67 0.0 1.0 0.00 0.00 0.00 82 1016.8
20180426054708 65 67 0.0 1.0 0.00 0.00 0.00 81 1017.0
20180426053708 65 67 0.0 3.0 0.00 0.00 0.00 82 1017.2
20180426044709 65 67 3.0 5.0 0.00 0.00 0.00 83 1018.6
20180426043711 65 58 3.0 3.0 0.00 0.00 0.00 82 1018.6
20180426041709 65 101 1.0 3.0 0.00 0.00 0.00 83 1018.6
20180426040709 65 69 2.0 3.0 0.00 0.00 0.00 84 1018.6
20180426034709 65 60 1.0 3.0 0.00 0.00 0.00 85 1018.6
20180426033709 66 55 0.0 2.0 0.00 0.00 0.00 85 1018.6
20180426031709 66 54 0.0 3.0 0.00 0.00 0.00 85 1018.6
20180426030711 66 55 1.0 3.0 0.00 0.00 0.00 85 1018.6
20180426024709 66 90 2.0 3.0 0.00 0.00 0.00 84 1018.6
20180426023709 66 94 2.0 5.0 0.00 0.00 0.00 83 1018.6
20180426021710 67 76 3.0 5.0 0.00 0.00 0.00 83 1018.5
20180426020710 67 102 1.0 5.0 0.00 0.00 0.00 84 1018.5
20180426014710 67 94 2.0 5.0 0.00 0.00 0.00 84 1018.4
20180426013709 67 108 2.0 5.0 0.00 0.00 0.00 84 1018.2
20180426011709 67 81 2.0 6.0 0.00 0.00 0.00 84 1017.5
20180426010710 67 44 3.0 9.0 0.00 0.00 0.00 83 1017.5
20180426004709 67 64 5.0 8.0 0.00 0.00 0.00 84 1017.8
20180426003710 68 59 5.0 10.0 0.00 0.00 0.00 86 1017.6
20180426001710 68 51 4.0 7.0 0.00 0.00 0.00 86 1017.2
20180426000710 69 36 5.0 7.0 0.00 0.00 0.00 85 1017.2
20180425231709 70 68 4.0 7.0 0.00 0.00 0.00 82 1016.8
20180425230709 70 60 3.0 6.0 0.00 0.00 0.00 82 1016.3